[Iaude] MPEC S215: 2023 SN6 [a=1.72,e=0.44,i=5.6,H=25.6]
    mpec at marsden.cfa.harvard.edu 
    mpec at marsden.cfa.harvard.edu
       
    Mon Sep 25 22:17:19 EDT 2023
    
    
  
M.P.E.C. 2023-S215                           Issued 2023 September 26, 02:15 UT
     The Minor Planet Electronic Circulars contain information on unusual
         minor planets, routine data on comets and natural satellites,
         and occasional editorial announcements.  They are published
    on behalf of Division F of the International Astronomical Union by the
          Minor Planet Center, Smithsonian Astrophysical Observatory,
                          Cambridge, MA 02138, U.S.A.
			  
             Prepared using the Tamkin Foundation Computer Network
                              MPC at CFA.HARVARD.EDU
            URL https://www.minorplanetcenter.net/    ISSN 1523-6714
                                    2023 SN6                                    
Observations:
     K23S06N*1C2023 09 24.26356523 42 43.603+31 19 45.30               VES215G96
     K23S06N 1C2023 09 24.26931723 42 46.487+31 20 13.24         20.27GVES215G96
     K23S06N 1C2023 09 24.27507123 42 49.417+31 20 41.03         20.75GVES215G96
     K23S06N 1C2023 09 24.28080623 42 52.319+31 21 08.46         20.43GVES215G96
     K23S06N mC2023 09 24.37293123 43 39.752+31 28 27.01         21.21GVES215I52
     K23S06N mC2023 09 24.37369223 43 40.152+31 28 30.58         21.09GVES215I52
     K23S06N mC2023 09 24.37445523 43 40.544+31 28 34.07         21.03GVES215I52
     K23S06N mC2023 09 24.37521523 43 40.904+31 28 37.81         21.10GVES215I52
     K23S06N KC2023 09 24.94749 23 49 32.89 +32 15 54.2                VES215204
     K23S06N KC2023 09 24.96188 23 49 41.31 +32 17 08.3          20.8 GVES215204
     K23S06N KC2023 09 24.97770 23 49 50.60 +32 18 29.2                VES215204
     K23S06N KB2023 09 25.04953423 50 34.42 +32 24 39.0          20.7 GVES215I93
     K23S06N KB2023 09 25.05454323 50 37.42 +32 25 03.8          20.6 GVES215I93
     K23S06N KB2023 09 25.05940623 50 40.36 +32 25 28.6          20.2 GVES215I93
     K23S06N KC2023 09 25.13792623 51 43.09 +32 32 23.2          20.0 GXES215858
     K23S06N KC2023 09 25.14436523 51 47.02 +32 32 58.4          20.5 GXES215858
     K23S06N KC2023 09 25.15086723 51 51.06 +32 33 34.4          20.2 GXES215858
     K23S06N KC2023 09 25.88544200 00 25.46 +33 39 27.9          20.3 GVES215L01
     K23S06N KC2023 09 25.88796600 00 27.21 +33 39 42.3          20.7 GVES215L01
     K23S06N KC2023 09 25.89049100 00 29.01 +33 39 56.5          20.5 GVES215L01
Observer details:
204 Schiaparelli Observatory.  Observers L. Buzzi, G. Galli.  0.84-m f/3.5
    reflector + CCD.
858 Tebbutt Observatory, Edgewood.  Observer F. B. Zoltowski.  0.51-m f/8.1
    Schmidt-Cassegrain + CCD.
G96 Mt. Lemmon Survey.  Observer K. W. Wierzchos.  Measurers E. J.
    Christensen, D. Fay, J. B. Fazekas, D. C. Fuls, A. R. Gibbs, A. D. Grauer,
    H. Groeller, J. K. Hogan, R. A. Kowalski, S. M. Larson, G. J. Leonard, D.
    Rankin, R. L. Seaman, A. Serrano, F. C. Shelly, K. W. Wierzchos.  1.5-m
    reflector + 10K CCD.
I52 Steward Observatory, Mt. Lemmon Station.  Observer A. Serrano.  Measurers
    E. J. Christensen, D. Fay, J. B. Fazekas, D. C. Fuls, A. R. Gibbs, A. D.
    Grauer, H. Groeller, J. K. Hogan, R. A. Kowalski, S. M. Larson, G. J.
    Leonard, D. Rankin, R. L. Seaman, A. Serrano, F. C. Shelly, K. W.
    Wierzchos.  1.0-m prime focus + CCD.
I93 St Pardon de Conques.  Observer F. Losse.  0.40-m f/3.7 reflector + CMO.
L01 Visnjan Observatory, Tican.  Observers K. Korlevic, L. Poropat, G.
    Kervina.  Measurer K. Korlevic.  1.0-m f/2.9 reflector + CCD.
Orbital elements:
2023 SN6                                                 Earth MOID = 0.0001 AU
Epoch 2023 Sept. 13.0 TT = JDT 2460200.5                Veres                   
M 338.76937              (2000.0)            P               Q                  
n   0.43617669     Peri.  206.19946     +0.71051993     -0.70298904             
a   1.7219786      Node   198.57801     +0.66154686     +0.68239473             
e   0.4382991      Incl.    5.60369     +0.23982739     +0.20035927             
P   2.26           H   25.63          G   0.15           U   8                  
Residuals in seconds of arc
230924 G96  0.3+  0.3+    230924 I52  0.4-  0.1+    230925 858  0.1+  0.5+
230924 G96  0.1-  0.2+    230924 204  0.1+  0.3+    230925 858  0.6-  0.1+
230924 G96  0.0   0.0     230924 204  0.0   0.3+    230925 858  0.3-  0.1+
230924 G96  0.2-  0.4-    230924 204  0.0   0.2+    230925 L01  0.1+  0.0
230924 I52  0.2+  0.0     230925 I93  0.1+  0.3+    230925 L01  0.2-  0.0
230924 I52  0.2+  0.0     230925 I93  0.1+  0.1-    230925 L01  0.2+  0.3-
230924 I52  0.1+  0.1-    230925 I93  0.3+  0.3+
Ephemeris:
2023 SN6                 a,e,i = 1.72, 0.44, 6                   q = 0.9672
Date    TT    R. A. (2000) Decl.     Delta      r    Elong.  Phase     V
2023 08 27    22 32 47.6 +14 54 31   0.2141  1.2074   154.6    21.1    23.7
...
2023 09 11    22 47 02.3 +20 38 42   0.1267  1.1219   153.6    23.5    22.5
...
2023 09 19    23 08 57.2 +25 44 38   0.08606 1.0810   151.2    26.6    21.7
...
2023 09 25    23 50 05.3 +32 20 54   0.05879 1.0534   148.0    30.3    20.9
2023 09 26    00 01 48.5 +33 50 41   0.05466 1.0491   147.0    31.3    20.8
2023 09 27    00 15 55.0 +35 28 04   0.05071 1.0449   145.8    32.6    20.6
...
2023 10 03    03 10 13.9 +43 38 39   0.03356 1.0215   127.2    51.3    20.2
...
2023 10 11    07 32 17.8 +19 25 32   0.04347 0.9960    85.4    92.1    22.1
...
2023 10 26    09 06 35.1 -01 27 54   0.1050  0.9693    73.2   100.8    24.3
M. P. C. Staff               (C) Copyright 2023 MPC           M.P.E.C. 2023-S215
    
    
More information about the Iaude
mailing list